Location: Im Fang
(46.6019°N, 7.2397°E)
Time: 18:33:23
(UTC+00:00)

Cosmos 1733 Rocket - Pass Details

Date: 08 December 2019
Orbit: 604 x 627 km, 82.5° (Epoch: 22 January)

Event Time Altitude Azimuth Distance (km) Brightness Sun altitude
Rises 05:29:44 0° 169° (SSE) 2,848 6.9 -15.1°
Reaches altitude 10° 05:32:01 10° 162° (SSE) 1,949 6.1 -14.7°
Maximum altitude 05:36:03 40° 92° (E) 892 4.5 -14.1°
Drops below altitude 10° 05:40:07 10° 23° (NNE) 1,964 5.7 -13.4°
Sets 05:42:26 0° 16° (NNE) 2,874 6.5 -13.0°
